Theta_e
351 350 348 347 346 342 341 345 348 349 349 348 347 347 347 345 344 345 344 344 344 344 344 343 343 341 332 326 326 325 324 323 323 323 323 323 323 324 324 324 324 324 324 324 324 324 324 324 324 324 324 324 324 325 325 329 333 335 336 338 340 340 339 343 344 344 342 340 342 344 343 343 343 343 343 343 342 342 342 342 340 338 337 336 332
350 350 348 347 344 341 342 345 347 348 349 347 345 345 346 345 344 345 345 344 344 344 344 343 344 340 330 326 326 325 324 324 323 323 324 324 324 325 326 326 326 326 326 326 326 325 325 324 325 324 324 324 323 324 324 325 327 327 329 332 335 339 339 341 344 344 342 341 342 343 343 343 343 343 343 342 341 342 341 340 338 337 337 335 332
349 349 347 346 343 340 343 346 346 347 347 346 343 343 344 344 343 344 344 343 344 344 344 344 342 335 328 328 327 326 326 325 326 326 326 326 327 327 327 328 327 327 327 327 327 326 326 326 326 325 325 325 324 324 325 325 325 323 324 325 329 334 336 339 343 344 343 342 342 342 343 343 343 342 342 342 341 341 340 340 338 337 338 337 334
348 349 347 346 342 338 343 346 346 346 346 344 343 343 343 342 342 343 343 344 344 344 344 343 338 331 327 328 327 327 327 328 328 328 329 328 329 329 329 329 328 329 328 328 328 327 327 327 328 329 328 327 328 329 331 330 329 328 328 329 330 331 333 336 341 344 344 343 342 341 341 342 342 343 342 341 341 341 340 339 338 338 339 339 336
348 348 347 348 343 336 342 346 344 346 345 344 342 340 340 340 340 341 343 343 344 344 342 338 332 329 328 327 327 327 327 327 327 328 329 328 329 329 329 329 329 328 329 329 329 328 328 329 331 335 334 332 334 335 335 332 332 332 333 337 339 338 336 335 337 341 343 342 341 339 340 342 341 342 342 341 340 340 339 338 338 339 340 339 337
348 349 348 348 345 337 341 346 344 345 344 344 341 336 336 337 339 340 342 343 343 341 337 333 331 328 327 327 327 327 327 327 326 327 327 328 328 328 329 329 329 328 329 329 328 329 329 330 332 338 339 336 336 336 336 336 336 336 337 341 343 344 343 338 332 331 335 336 336 336 337 341 342 342 342 341 341 341 341 339 339 337 339 339 339
347 349 348 349 348 340 339 344 343 343 343 343 340 336 334 335 337 338 340 342 340 336 333 332 331 328 327 327 327 327 327 327 326 326 326 327 327 327 328 328 328 328 328 329 330 331 332 333 334 339 340 337 338 337 337 338 339 340 341 343 343 344 345 343 336 330 328 327 331 334 336 339 342 343 342 342 340 341 341 341 339 336 337 339 341
347 348 349 348 349 343 339 342 341 339 341 341 338 335 333 333 335 335 338 340 338 333 333 331 329 328 327 327 326 327 327 327 326 326 326 326 326 326 326 327 327 327 328 328 330 332 334 336 336 340 340 337 338 338 338 339 339 341 341 342 343 344 344 344 340 335 331 329 329 329 332 337 341 343 343 343 341 340 340 340 338 336 337 339 342
347 347 348 348 348 346 340 340 340 338 339 337 336 334 331 332 333 334 338 338 334 332 333 331 329 328 327 326 326 326 326 327 327 326 326 326 326 325 325 326 326 327 327 328 330 331 332 335 336 338 339 337 339 339 339 339 340 341 342 341 342 343 343 343 341 337 335 334 331 329 327 330 337 343 343 342 341 340 339 340 338 336 338 340 342
348 347 348 348 347 348 343 339 339 338 337 335 334 333 331 329 331 334 337 336 331 332 333 330 329 329 328 327 327 327 327 327 327 326 326 326 326 326 326 326 326 326 326 328 332 331 334 336 338 340 341 339 339 340 340 339 340 342 342 341 342 342 341 342 341 338 337 335 334 333 330 326 329 338 342 342 341 340 338 340 338 336 338 341 342
348 348 348 347 347 349 346 340 336 337 336 334 332 331 330 328 329 334 335 333 330 331 331 330 329 329 329 328 327 327 327 326 327 327 326 326 326 326 326 326 326 327 328 332 334 335 338 340 341 342 342 342 340 341 342 341 341 342 341 341 341 341 340 340 339 338 337 335 334 336 337 332 326 330 338 343 341 340 338 338 338 336 338 341 341
348 348 348 347 348 349 348 342 335 335 336 334 333 331 330 328 329 332 332 331 330 330 330 330 329 330 330 327 327 326 326 325 325 326 326 326 327 326 325 326 327 331 335 336 338 339 342 342 342 342 342 343 341 341 341 341 341 340 340 340 340 340 340 340 339 338 338 336 335 335 338 339 332 326 333 341 340 338 338 337 338 336 337 339 340
349 349 349 348 348 349 349 346 338 335 336 334 332 331 331 329 329 329 330 331 330 330 330 329 331 333 332 326 325 327 328 328 327 327 327 327 328 327 327 329 332 338 340 338 338 340 342 342 341 342 341 342 341 341 341 340 340 340 339 339 340 339 339 340 340 338 336 336 337 336 337 342 336 327 328 336 336 337 338 337 338 336 334 335 339
348 349 349 348 348 349 349 348 344 338 337 336 332 330 330 328 328 329 330 331 331 330 329 328 330 332 333 327 324 328 332 332 331 331 331 331 330 328 329 332 335 339 340 337 338 338 339 339 340 341 341 341 341 341 341 341 341 340 340 339 339 338 337 338 337 336 334 334 338 337 336 341 339 331 329 333 335 335 338 338 338 336 331 329 335
348 348 349 348 349 350 349 349 348 342 337 338 335 331 329 329 329 330 331 331 331 330 329 329 327 327 329 328 325 328 334 336 335 336 337 335 333 331 332 336 337 338 339 338 338 337 337 337 339 341 340 339 340 341 341 341 341 340 340 340 339 338 338 337 336 335 332 332 338 339 337 339 340 337 335 336 336 336 339 340 338 336 335 328 329
347 348 349 349 348 350 349 348 349 345 339 338 337 333 330 330 330 332 332 332 332 330 329 328 327 325 325 326 325 326 333 338 337 339 341 339 336 335 337 339 339 338 338 338 337 336 337 338 337 339 340 339 340 341 340 340 340 339 340 339 339 339 339 338 337 336 334 333 337 341 339 338 341 341 340 340 339 339 341 342 340 337 339 334 328
346 347 348 349 349 349 349 349 348 346 342 339 337 335 333 332 332 333 333 332 331 329 328 327 325 325 324 325 325 325 332 337 337 340 341 340 340 339 341 340 339 339 338 338 337 335 335 335 335 335 338 339 339 339 338 339 340 340 339 340 339 339 339 338 338 338 337 336 337 339 339 338 339 341 342 342 342 342 341 342 342 339 339 338 335
346 347 347 348 349 349 349 348 347 345 344 342 341 338 336 334 333 333 331 330 329 327 327 325 324 324 324 325 324 328 337 340 339 340 341 340 340 341 343 342 340 340 338 337 336 332 331 333 332 333 336 336 336 336 336 337 339 340 340 340 339 338 338 339 337 337 337 337 337 337 338 339 339 341 342 343 343 342 342 342 343 342 339 338 339
346 346 347 347 347 347 347 348 346 345 345 345 344 342 340 337 335 334 330 328 327 326 325 323 324 324 324 326 329 337 343 343 341 341 341 341 341 342 343 343 341 340 338 337 333 329 330 333 332 334 336 335 334 335 337 337 340 341 341 341 340 339 340 340 338 337 335 336 337 337 337 339 339 340 342 343 342 342 342 342 343 344 341 338 339
345 346 346 346 346 347 346 347 347 346 346 344 344 343 343 340 338 338 334 328 326 326 324 322 323 324 328 335 339 343 345 343 342 343 342 343 343 343 343 343 342 339 338 336 330 328 331 333 334 336 336 336 336 337 339 341 343 344 343 343 341 342 343 342 341 340 338 335 336 337 337 339 340 341 341 341 340 341 340 342 343 342 341 339 339
346 346 346 346 346 346 346 346 348 347 346 345 344 342 343 342 340 340 339 332 327 327 325 323 324 326 334 342 344 345 343 341 343 343 342 343 343 344 343 343 341 338 338 333 328 330 333 335 335 336 335 336 336 337 339 341 342 344 345 345 342 342 342 342 343 343 342 340 337 336 336 338 339 340 341 339 338 340 340 341 343 341 338 336 338
346 346 346 346 345 346 346 346 347 347 347 346 345 344 344 344 341 339 340 337 331 328 325 326 327 328 334 341 345 341 338 339 342 343 343 344 344 344 343 343 342 339 336 331 329 332 335 336 335 335 335 336 337 338 339 340 341 342 344 345 343 342 341 340 342 342 343 344 342 339 337 337 338 338 339 340 339 339 339 341 342 341 338 333 336
346 347 346 346 345 346 346 346 347 347 348 347 347 346 345 345 344 340 340 338 334 329 325 326 328 329 330 337 342 338 335 338 343 344 343 344 343 344 343 343 343 340 335 329 331 334 336 337 335 334 335 336 337 338 338 339 341 341 342 343 343 344 342 340 340 340 341 343 344 343 340 337 337 336 337 340 341 339 339 340 340 341 338 334 335
346 347 346 346 346 346 347 347 347 348 348 348 348 347 347 347 346 343 341 340 338 335 330 329 331 333 334 336 340 338 337 339 342 344 344 343 343 343 343 343 342 338 331 329 333 336 337 337 335 335 336 337 338 338 339 339 340 341 343 343 343 343 343 341 338 338 340 342 343 344 342 340 338 336 336 339 340 340 340 339 338 338 336 335 336
347 346 347 346 347 347 348 348 347 348 348 348 348 347 346 346 345 344 344 344 343 342 339 337 337 339 340 340 341 341 340 341 342 343 342 342 342 341 341 340 336 331 329 332 335 336 337 337 336 338 339 340 341 342 342 341 341 342 343 344 343 342 341 341 340 339 340 341 343 344 343 342 342 338 336 337 339 340 340 338 337 337 334 336 338
347 347 346 347 347 347 348 347 347 346 346 347 346 345 345 344 344 345 345 345 344 344 343 343 342 342 342 343 343 343 341 341 342 341 341 340 339 339 338 335 330 328 331 334 336 338 338 340 340 341 341 342 343 343 344 344 343 344 344 344 343 342 341 341 341 342 342 341 343 344 344 343 343 341 338 337 337 338 340 340 338 337 335 336 338
347 346 346 346 346 346 347 346 346 345 344 345 344 344 343 343 344 345 345 345 345 345 345 344 344 343 343 343 343 342 340 340 340 340 340 338 337 338 335 331 328 331 334 337 340 341 342 343 343 343 343 344 344 344 344 344 344 344 344 344 343 343 342 341 342 343 343 342 343 344 344 343 344 344 341 338 337 337 339 340 339 337 336 337 338
346 346 344 345 345 345 346 346 346 345 345 344 345 345 345 345 346 346 346 346 345 345 344 343 343 342 342 342 341 340 340 339 339 340 338 337 337 335 331 329 332 335 338 341 343 344 344 345 345 345 345 344 345 345 343 342 342 343 343 343 343 343 343 342 343 343 342 342 344 344 343 342 343 344 344 340 337 336 337 339 339 338 336 337 337
346 346 344 343 344 344 345 345 346 345 344 345 345 346 345 345 346 346 346 345 344 343 343 342 341 340 340 340 339 339 339 338 338 338 337 337 335 331 330 332 336 339 343 344 345 345 345 346 346 346 345 344 344 344 343 341 341 342 342 342 343 343 344 344 344 344 344 343 344 345 344 342 342 343 343 343 341 338 337 337 338 339 337 336 337
346 346 345 343 343 344 344 345 345 345 344 344 344 344 344 344 343 343 344 343 341 341 341 340 339 338 338 338 339 339 337 338 338 338 337 335 330 329 333 337 339 342 344 344 344 345 346 346 346 346 346 345 344 344 343 342 342 342 343 344 344 344 345 345 344 345 345 345 345 344 345 345 344 342 342 343 343 340 339 338 338 339 338 336 336
347 347 346 344 344 344 343 344 344 344 342 342 343 342 342 341 342 342 342 341 340 340 339 337 337 338 338 338 339 338 337 338 339 339 336 331 331 335 340 341 342 343 344 344 345 345 345 346 347 346 346 346 346 345 344 343 343 344 344 344 344 345 346 345 344 344 344 346 346 343 343 345 345 342 342 344 343 342 341 340 338 339 339 338 337
348 347 346 345 344 344 344 343 343 343 342 341 341 341 341 341 341 342 342 341 339 337 335 335 337 338 338 338 338 337 337 338 339 337 332 331 336 341 342 342 343 343 343 344 345 345 344 346 346 346 346 346 346 345 345 345 344 345 345 345 344 344 345 343 342 341 342 343 345 344 342 343 343 342 343 344 344 343 342 342 341 340 339 339 338
348 348 347 346 345 345 344 344 343 342 341 341 341 342 341 341 341 341 343 342 337 335 334 335 338 338 338 338 337 337 338 339 337 333 332 336 341 343 342 343 343 343 344 343 344 345 344 346 347 347 346 346 346 346 346 345 345 346 345 344 344 343 342 342 341 340 341 340 340 343 344 343 342 341 343 344 344 343 343 342 342 341 339 338 338
349 349 348 347 346 345 345 344 343 342 342 342 342 342 341 341 340 340 342 340 336 334 335 336 338 338 338 337 337 337 337 339 335 333 337 341 342 343 342 343 343 344 343 344 344 345 344 346 347 347 347 347 346 346 346 346 345 346 344 343 344 343 342 342 342 343 343 341 340 342 342 343 342 341 342 343 343 343 344 343 343 341 340 339 339
349 348 348 348 346 346 345 344 343 342 342 343 343 342 341 340 339 340 340 338 335 335 335 336 337 337 337 337 337 337 338 339 335 336 341 342 342 343 343 343 344 343 343 343 344 344 344 345 346 347 347 347 347 347 346 346 345 346 345 344 345 343 342 343 343 344 345 345 344 343 343 343 344 343 342 342 342 343 343 344 343 342 340 340 340
349 348 348 348 347 347 345 344 343 342 342 343 343 342 341 339 338 338 338 336 336 336 336 337 338 337 337 337 337 337 338 339 336 339 343 343 342 342 343 343 343 342 342 342 343 344 344 344 345 346 347 347 348 348 346 346 346 346 345 345 345 344 342 344 345 345 345 346 345 344 344 344 344 345 343 342 342 342 342 342 342 343 342 340 340
350 349 349 348 347 346 345 344 343 343 342 342 342 341 341 340 338 337 336 336 336 336 336 338 338 337 337 338 338 337 339 341 339 341 343 343 342 342 342 342 342 342 342 342 343 344 344 344 344 345 346 347 348 348 347 346 346 345 345 346 345 344 343 344 345 345 344 345 345 344 344 344 344 345 343 342 342 341 341 340 340 341 342 342 342
350 350 350 349 347 346 345 343 343 343 342 341 341 341 341 340 338 337 335 336 337 337 337 338 337 337 337 338 338 337 339 342 341 342 343 342 342 341 342 342 342 343 343 343 344 344 344 344 344 344 346 348 348 348 346 346 346 345 345 345 346 345 343 344 345 346 345 345 345 345 344 343 344 344 343 342 342 342 341 340 340 340 340 342 342
351 351 350 350 348 346 344 344 343 343 342 341 340 341 341 339 338 336 336 337 337 338 337 337 337 337 337 337 339 340 340 342 343 343 341 341 341 341 342 342 341 342 343 343 343 344 344 344 344 345 346 348 348 348 346 346 345 346 346 345 345 344 344 345 346 347 346 345 345 346 346 344 343 344 341 341 341 341 342 342 341 340 340 340 341
351 351 351 350 350 348 346 345 344 343 342 341 340 341 340 338 337 336 336 336 336 337 338 337 337 338 337 338 340 342 343 342 343 343 341 341 341 341 342 342 342 344 344 343 343 343 344 345 345 346 346 347 347 346 345 346 345 346 347 346 345 344 344 346 346 347 347 346 347 348 347 345 343 342 339 340 341 341 341 341 341 341 340 340 341
351 350 351 350 350 350 347 346 345 343 342 340 340 341 340 338 337 336 336 336 336 337 338 337 337 337 338 338 339 343 344 344 343 343 342 341 341 341 343 343 344 346 346 344 344 345 346 346 346 346 346 346 346 344 344 345 345 345 346 346 345 344 345 348 348 347 347 347 348 349 349 347 345 343 341 342 343 343 342 341 340 341 341 341 342
351 351 351 350 350 350 348 347 345 343 341 340 340 340 339 339 338 338 338 337 337 338 338 339 339 338 339 339 339 341 343 343 343 343 343 342 342 342 343 344 346 348 348 347 346 346 346 347 347 346 346 346 344 343 344 344 345 345 346 346 346 345 346 348 349 347 347 349 349 349 349 348 345 344 344 344 344 344 345 344 342 341 341 341 341
351 350 351 351 350 350 348 348 346 345 343 340 339 339 338 339 339 339 339 338 338 338 338 340 341 340 342 342 342 342 341 341 341 342 344 343 343 341 342 344 346 347 348 347 347 346 346 346 345 344 344 344 343 343 344 345 345 346 346 347 347 347 347 348 349 348 348 350 348 349 349 347 345 345 344 345 345 345 346 346 345 343 342 342 341
351 350 351 350 350 350 348 347 347 346 344 341 340 340 340 340 340 340 340 340 340 340 340 342 342 343 344 344 343 342 342 340 339 341 343 343 341 339 339 341 344 346 346 346 346 346 346 345 343 341 342 343 343 343 344 345 345 346 347 347 348 348 349 348 348 349 349 349 349 349 349 347 347 346 345 344 345 346 346 345 346 345 344 342 340
351 350 351 350 351 350 348 347 347 347 346 344 342 341 342 341 343 343 341 342 341 341 342 342 342 344 344 343 342 341 341 340 339 340 340 340 340 338 337 336 339 342 344 344 344 345 345 344 342 341 341 342 344 345 346 346 346 346 347 347 348 348 349 347 347 348 348 349 349 349 348 347 347 347 346 345 345 347 346 345 345 344 343 342 341
350 350 350 351 351 350 348 347 347 348 347 346 344 342 343 343 343 343 341 342 341 341 341 341 342 344 343 341 340 341 341 341 341 340 340 340 341 341 339 337 336 337 339 341 342 343 343 342 340 340 342 343 345 346 347 347 347 347 347 348 348 348 348 347 347 349 348 348 348 348 348 348 347 347 348 346 345 346 345 344 344 344 343 342 341
349 350 350 351 351 350 349 347 347 348 348 348 346 344 343 344 344 342 341 340 340 339 340 340 342 343 343 341 340 342 342 342 342 341 341 342 342 342 341 340 338 337 337 338 339 340 339 339 339 341 344 345 346 347 348 349 348 348 349 348 348 348 347 347 348 349 349 348 348 348 348 348 347 347 348 347 346 346 345 344 344 343 344 342 342
350 350 350 351 350 350 349 348 348 348 349 349 348 346 345 345 346 343 341 340 338 338 339 339 341 344 343 342 341 342 342 342 343 342 342 342 343 342 342 342 341 339 338 338 338 338 338 338 339 341 344 345 346 348 349 349 349 349 349 349 348 348 347 347 347 349 349 348 347 347 347 347 347 347 348 348 348 347 346 345 345 345 344 343 343
350 349 349 350 349 350 349 348 349 349 349 349 348 348 346 345 346 346 343 340 337 337 339 340 342 343 344 343 342 342 343 343 343 342 342 342 342 342 344 343 343 341 340 339 339 339 340 341 341 342 345 347 347 348 349 349 350 349 349 349 349 349 348 348 348 349 350 349 347 346 346 347 346 347 348 348 348 348 346 345 345 345 345 344 344
350 348 348 348 349 349 349 348 348 349 349 349 349 349 346 344 346 347 345 342 339 337 339 341 342 343 343 343 342 342 343 343 343 343 342 341 342 343 344 345 342 341 340 340 340 341 343 344 344 344 345 347 349 349 349 349 350 350 349 349 349 349 349 348 349 349 349 349 348 346 346 346 347 347 347 347 347 348 348 346 345 344 345 345 345
350 349 348 348 348 349 348 347 348 349 349 349 349 349 348 346 345 347 347 345 343 341 340 342 343 344 344 344 344 344 344 344 343 343 342 341 342 343 345 345 343 342 341 341 341 343 345 346 347 346 345 346 347 347 348 350 350 350 350 350 350 349 348 348 349 349 349 349 349 346 345 346 346 347 347 346 346 346 347 348 347 346 345 344 344
Wind_Speed
27 25 25 25 26 26 26 25 25 25 24 23 21 20 21 21 20 18 17 17 16 16 15 14 12 12 12 13 14 14 15 15 15 15 15 15 14 14 13 13 13 13 13 13 12 12 11 11 11 11 11 10 9 9 9 10 10 11 11 11 11 11 11 11 11 11 12 11 12 13 12 12 12 12 12 11 11 11 11 11 9 7 7 8 9
29 27 26 26 27 27 25 25 26 25 25 23 21 21 21 22 21 19 18 17 16 15 14 13 12 12 13 14 15 15 15 15 15 14 14 14 13 13 13 12 12 12 12 12 11 11 11 10 11 11 11 9 8 8 7 9 9 10 10 11 11 11 10 10 10 10 10 10 11 12 12 12 12 11 11 11 11 10 10 10 9 7 7 8 8
29 28 26 26 26 27 26 25 26 26 25 23 21 21 22 23 21 19 18 18 16 15 14 14 13 13 14 15 15 16 16 15 15 14 14 13 13 12 12 11 11 10 10 10 10 10 9 9 10 10 11 9 7 7 7 9 9 9 9 10 10 11 10 10 10 9 9 9 9 10 11 11 11 11 10 10 10 9 10 10 9 8 7 8 8
29 29 27 25 25 27 26 26 27 26 25 23 22 22 23 23 21 20 18 18 16 15 15 15 15 15 16 16 16 15 15 15 14 13 13 12 11 11 10 10 10 9 9 9 9 8 8 9 9 9 9 7 7 7 8 9 8 8 7 7 8 9 10 9 9 8 9 8 7 8 9 10 10 10 9 9 9 9 9 9 9 7 7 7 9
29 30 28 26 25 27 27 26 27 26 25 23 22 23 23 23 22 20 18 18 17 16 16 16 17 17 16 15 15 14 14 14 13 13 12 11 10 10 9 9 9 8 7 8 8 7 7 7 7 8 8 7 7 7 6 5 4 4 3 4 5 6 8 8 8 7 7 7 7 7 7 8 9 9 9 8 9 9 9 9 8 7 8 8 10
29 29 29 27 25 27 27 26 26 26 25 23 23 23 22 22 22 21 19 18 18 18 18 18 18 17 16 14 14 13 14 13 13 12 11 10 9 8 8 8 8 7 6 6 6 6 6 5 6 7 7 6 7 4 3 2 1 2 2 4 3 3 5 6 6 6 6 6 6 7 6 6 8 8 8 8 8 8 9 9 8 8 9 10 11
28 29 29 28 26 27 27 25 25 25 24 24 23 23 22 22 22 21 20 19 19 20 20 19 18 17 14 13 12 12 12 12 11 10 10 9 8 7 6 6 6 5 4 5 5 4 4 5 5 6 5 5 4 2 1 1 1 2 2 3 2 2 3 4 5 5 6 6 6 7 7 6 6 7 8 8 7 7 8 8 7 7 10 11 12
27 28 29 28 26 26 26 25 24 24 24 24 24 23 22 22 22 21 20 20 20 21 20 19 17 15 14 12 11 11 11 10 10 9 8 7 7 6 5 5 5 4 3 3 4 3 3 4 4 5 3 3 2 1 1 0 1 2 1 2 2 2 2 2 3 3 4 5 6 7 7 7 6 7 8 8 6 6 7 7 7 7 10 12 12
27 28 28 27 25 24 24 24 23 24 24 24 24 23 22 22 22 21 21 21 22 22 20 18 16 14 12 11 9 9 9 8 8 7 7 6 5 4 3 3 3 3 2 2 3 2 2 3 3 3 2 1 1 0 1 2 2 2 2 3 3 3 3 2 2 3 2 2 3 5 7 7 7 7 8 7 6 6 7 7 8 9 11 12 12
28 27 27 27 25 23 23 24 23 23 23 23 24 23 23 22 22 22 22 22 22 21 19 17 15 13 11 9 8 7 7 6 5 4 4 4 3 3 2 2 3 2 1 1 2 1 1 2 2 3 2 1 1 0 1 3 3 3 3 3 4 3 3 3 3 3 2 1 2 4 5 7 7 7 7 7 7 6 6 7 8 10 11 11 12
28 27 27 26 26 23 22 23 24 23 22 23 23 23 23 23 23 23 23 22 21 19 18 16 14 12 9 7 6 5 5 4 3 3 3 3 3 3 2 2 2 2 1 1 1 1 2 2 2 1 1 1 0 0 1 2 3 2 3 4 4 4 3 4 4 4 3 1 2 4 4 5 6 8 8 9 8 7 7 8 9 10 10 11 12
29 28 27 26 26 24 22 22 23 23 22 23 23 23 23 23 24 24 23 21 20 18 16 14 12 10 8 5 4 3 3 3 3 3 3 3 3 3 3 2 2 1 1 1 2 2 2 2 2 1 1 0 0 1 1 1 2 1 2 3 3 4 4 4 5 3 2 1 2 4 5 4 4 6 9 10 9 8 8 8 9 10 10 11 11
29 28 28 27 26 24 24 22 22 23 22 22 23 24 24 24 24 24 23 21 20 18 15 13 11 9 7 4 3 2 2 2 2 3 3 3 3 3 3 2 1 1 0 1 2 2 2 2 2 2 1 0 0 1 1 1 1 1 2 2 2 3 4 5 5 3 2 2 3 3 4 5 4 5 9 10 11 10 9 9 9 10 10 11 11
28 28 27 27 26 24 24 22 22 23 22 22 23 24 24 24 23 23 22 20 19 17 15 12 10 8 7 5 5 3 3 2 2 3 3 3 3 3 3 2 1 1 1 1 2 2 2 2 2 2 1 1 1 2 1 1 1 1 2 2 2 2 3 4 4 4 3 2 3 3 3 5 5 6 8 9 11 11 10 9 9 9 10 12 13
27 28 27 27 25 23 24 23 22 23 22 21 22 24 24 24 23 22 21 20 18 15 14 12 10 9 7 6 6 4 3 4 3 4 3 3 3 3 3 2 2 1 1 1 2 2 2 2 2 1 2 1 1 2 2 2 2 2 3 2 2 2 3 4 4 5 5 3 3 4 4 6 6 7 7 7 9 11 10 10 9 9 10 12 14
26 27 26 26 24 23 23 23 23 22 22 22 21 23 23 24 23 21 20 19 17 15 13 11 10 9 8 9 8 5 5 6 4 4 4 3 3 3 3 2 2 2 2 2 2 2 2 2 2 1 1 2 1 2 1 2 2 3 3 3 3 3 3 3 4 5 6 4 3 4 5 7 7 7 7 7 9 9 10 10 10 10 10 11 13
26 27 26 26 24 23 23 22 22 22 22 22 21 22 22 23 22 21 20 19 17 15 12 11 11 9 9 11 12 9 8 8 6 5 5 4 4 4 3 3 2 2 3 2 2 2 2 2 2 1 1 2 1 1 1 2 2 3 4 3 3 3 3 3 4 5 6 6 5 4 4 7 8 8 8 8 9 9 9 10 11 11 10 11 12
26 26 26 25 24 22 22 22 21 23 24 23 22 21 21 21 21 20 20 19 18 15 13 12 12 11 11 13 13 12 10 9 8 6 6 6 5 5 4 3 3 3 3 2 1 2 1 1 1 1 1 1 0 1 2 3 3 3 4 3 4 5 4 4 4 4 5 6 6 6 4 6 8 10 10 10 10 10 9 9 10 11 11 10 11
26 26 27 26 25 22 22 22 22 24 25 25 24 23 21 21 21 21 21 20 19 17 15 14 13 13 15 14 13 13 11 9 9 8 8 7 7 6 5 4 4 4 3 1 1 1 1 1 2 2 0 1 2 2 3 4 4 4 4 3 5 6 5 5 4 3 4 5 5 6 5 5 8 10 10 10 10 10 10 10 10 10 10 10 11
26 27 27 27 25 23 23 22 22 23 24 25 24 24 22 21 21 21 21 21 21 20 18 16 16 16 16 14 13 13 11 10 10 10 9 9 9 8 7 6 5 4 3 2 2 1 1 1 2 0 2 3 3 4 4 5 5 5 5 3 3 4 5 5 5 4 4 4 4 6 6 6 7 9 10 11 11 11 11 11 10 10 9 10 11
26 26 27 27 26 24 23 23 23 23 23 24 23 23 22 22 22 21 20 21 23 22 21 20 20 17 15 14 15 14 12 12 12 11 11 10 10 9 8 7 6 5 3 3 3 2 2 2 1 2 3 3 3 4 4 5 5 6 6 4 2 2 3 4 4 4 4 4 4 6 7 7 8 10 11 12 12 12 12 12 11 11 10 10 12
26 26 26 27 27 26 25 23 23 22 23 23 22 22 22 22 22 22 21 21 23 23 23 22 21 18 17 17 17 16 14 14 14 13 12 12 11 9 8 7 7 5 4 4 3 3 3 2 2 2 2 2 3 4 5 5 6 7 8 7 5 3 3 4 3 3 4 4 5 6 7 8 9 11 12 13 13 13 13 13 13 13 12 11 12
27 27 26 26 26 26 26 24 23 23 23 23 23 23 23 23 22 22 22 22 22 23 25 24 22 21 22 22 19 18 17 16 15 14 13 13 11 10 8 7 7 6 5 5 4 3 2 1 3 1 1 3 5 6 7 7 8 9 9 8 7 6 5 5 5 5 5 4 5 7 9 9 10 11 12 14 14 14 14 15 15 14 13 12 13
27 27 26 26 26 26 26 25 24 23 22 22 22 23 24 24 23 22 22 22 22 23 25 25 25 24 24 23 21 19 18 16 14 13 13 13 12 11 9 8 7 6 5 5 3 2 2 2 3 1 2 4 6 8 9 9 9 9 10 9 8 6 6 6 6 6 6 5 5 8 10 10 11 11 12 14 15 14 14 16 16 14 14 14 14
26 27 27 26 26 26 25 25 24 23 22 22 22 22 23 23 22 22 22 22 22 22 23 24 25 24 24 23 21 19 17 15 13 13 13 13 12 11 9 8 6 5 5 4 3 2 2 2 2 1 3 4 6 7 9 9 8 8 9 9 8 6 6 6 7 7 7 6 6 7 9 10 12 12 12 14 15 15 15 16 16 16 17 17 16
25 26 27 26 26 26 25 25 24 23 22 22 21 21 23 22 22 23 23 23 22 23 23 23 23 23 22 21 19 18 16 14 13 14 13 11 10 10 8 6 5 5 5 4 3 1 2 1 0 2 3 4 5 6 7 7 7 7 8 8 7 6 6 6 7 8 8 8 8 7 8 10 11 12 12 14 15 16 16 17 17 18 19 19 18
26 26 27 27 26 26 25 24 23 22 22 22 21 22 23 22 23 24 24 24 23 23 23 22 21 20 20 19 18 18 16 14 14 14 12 10 9 9 8 7 7 6 5 4 2 1 2 1 1 2 3 4 5 6 6 6 6 6 7 7 7 7 7 7 8 9 9 8 9 9 8 9 9 10 11 13 15 16 16 17 19 19 19 18 19
25 24 25 26 25 26 25 23 22 22 22 22 22 22 23 22 23 24 24 23 22 22 21 20 19 17 18 18 17 16 15 14 14 12 10 9 9 8 8 8 8 7 6 4 3 2 2 2 2 2 2 4 4 5 6 6 6 7 7 7 7 7 8 8 8 9 9 8 9 10 9 8 8 9 11 12 14 16 15 17 19 19 19 19 19
23 22 23 24 24 24 24 23 22 22 21 21 22 22 22 22 23 22 21 21 21 20 18 18 16 16 17 17 16 15 14 14 13 11 10 9 9 9 9 9 9 8 7 5 4 3 2 1 2 2 3 5 5 5 6 6 7 7 8 8 9 8 8 9 9 9 9 8 8 10 10 9 8 9 11 12 14 15 15 16 18 19 19 19 19
21 21 22 23 23 23 23 22 22 22 21 21 21 21 21 21 21 20 19 19 18 17 16 16 15 16 16 15 15 14 14 13 11 10 10 10 10 11 11 10 9 8 7 5 4 4 2 1 1 2 4 5 5 6 7 7 7 8 9 9 10 10 9 9 10 10 8 8 8 9 10 10 8 9 11 13 14 16 16 16 17 18 19 20 19
21 21 21 22 22 22 22 21 21 21 21 21 21 20 19 19 19 18 17 17 16 15 15 15 15 15 15 14 14 14 13 12 11 11 12 12 12 12 12 10 10 8 6 5 4 3 2 0 1 2 4 5 6 7 8 8 8 9 10 10 10 10 9 8 9 10 8 8 7 7 8 9 8 8 9 11 13 14 16 16 17 18 19 20 21
22 21 21 21 21 21 21 20 21 21 21 21 20 19 18 18 19 18 17 16 15 14 14 14 14 14 14 14 14 13 13 13 13 13 13 14 14 13 12 10 9 7 6 5 5 4 3 1 2 3 3 5 6 7 8 9 9 10 11 10 9 9 8 9 9 9 7 6 6 6 7 7 7 7 8 9 11 12 13 15 16 17 19 20 21
21 20 20 21 20 19 20 20 21 22 21 20 20 19 18 18 18 18 17 17 16 15 14 14 13 13 14 14 14 13 13 14 14 14 15 15 15 13 12 10 7 6 5 6 6 5 4 2 2 3 3 5 6 7 8 9 10 11 11 9 9 9 8 8 8 8 7 6 6 5 5 6 6 6 7 8 8 10 11 12 15 17 18 19 21
20 21 22 21 20 19 20 21 21 21 20 19 19 18 18 18 18 17 17 17 16 15 14 14 13 13 14 14 14 14 14 15 15 16 16 16 15 13 12 9 7 6 6 7 8 6 4 2 2 3 4 6 8 8 9 9 10 12 11 9 9 9 7 7 8 7 7 6 6 5 4 5 5 6 6 7 7 9 10 11 13 15 16 17 19
21 21 22 21 20 20 20 21 21 21 19 19 19 18 19 18 17 17 16 16 16 16 15 14 14 14 14 15 14 15 15 15 16 17 17 16 14 13 11 9 7 7 7 8 8 6 4 3 3 4 5 7 9 9 9 10 10 11 11 8 9 8 6 7 7 7 7 6 6 6 5 5 6 6 5 5 6 8 9 11 12 13 15 16 18
20 20 21 21 21 20 20 21 21 20 19 19 19 19 19 19 17 16 16 17 17 16 15 15 15 15 15 15 15 16 16 16 17 18 17 16 14 13 12 10 8 7 7 8 7 6 5 4 5 6 7 8 9 10 10 10 11 11 10 8 8 7 6 6 7 8 7 7 8 7 6 5 5 5 4 5 6 7 8 9 11 12 14 15 17
18 19 20 20 21 21 21 21 20 20 19 18 18 19 19 19 18 17 17 17 17 16 16 16 16 16 16 16 16 17 17 17 18 18 17 16 15 14 12 10 8 7 7 6 6 5 5 6 7 8 8 8 9 10 10 11 11 10 9 8 7 6 6 6 7 8 8 8 9 9 8 6 4 4 4 6 7 8 8 8 9 10 11 13 15
18 18 18 18 19 20 21 21 19 19 19 18 18 18 18 19 18 18 18 17 17 17 17 17 17 18 17 16 16 17 18 18 18 18 17 16 15 14 13 10 9 8 6 5 6 6 7 8 8 8 8 8 9 9 10 10 11 10 8 8 8 6 6 7 8 9 8 8 9 11 11 10 7 4 3 4 7 9 10 9 8 9 9 11 14
19 19 18 17 18 19 21 21 19 19 19 18 18 18 18 19 19 19 19 19 18 18 19 19 18 18 18 17 17 18 19 19 18 18 16 15 15 14 12 11 10 8 6 7 7 8 9 9 9 9 9 8 9 9 9 9 10 9 8 9 9 6 6 7 8 9 9 8 9 11 12 13 11 6 2 1 3 6 8 9 9 9 9 10 12
21 20 19 19 18 19 20 21 19 20 21 20 20 20 20 20 21 21 21 21 20 20 20 19 19 18 17 17 17 18 18 19 18 17 17 16 15 14 12 11 10 6 6 8 9 9 9 10 11 11 10 10 10 9 7 7 8 8 8 8 8 6 5 8 9 9 8 7 8 11 12 13 13 8 4 3 2 1 3 6 8 8 9 9 10
24 22 21 20 19 18 19 20 19 21 23 22 22 23 22 22 23 23 22 21 20 20 20 19 19 18 17 17 18 18 18 18 18 17 17 16 15 15 13 12 9 6 7 9 9 10 10 11 12 12 12 12 11 7 5 6 6 7 7 7 7 5 6 10 12 9 8 7 8 10 11 11 12 9 5 3 4 3 1 3 6 8 9 10 11
27 25 23 21 20 19 19 20 19 22 24 22 23 24 23 23 22 22 21 20 20 20 19 18 18 18 18 18 18 19 19 18 17 16 16 15 14 14 14 12 10 8 9 10 10 11 12 12 13 14 14 13 10 6 5 6 6 6 6 6 6 5 5 11 13 9 9 10 8 9 11 10 11 10 8 5 5 4 3 2 4 6 8 9 11
27 25 24 22 21 20 19 20 20 22 23 23 24 24 22 21 20 20 19 19 19 19 18 17 17 18 18 17 17 18 19 19 18 16 16 16 14 13 13 14 13 12 12 13 13 13 13 13 14 14 13 13 10 6 5 5 5 5 6 5 5 4 4 11 13 9 11 13 9 11 12 11 10 11 10 7 5 4 4 3 3 5 6 8 9
27 25 25 24 23 21 20 21 21 21 22 23 23 22 21 20 19 19 19 18 18 18 18 18 18 19 18 18 17 16 17 17 17 17 17 16 15 14 14 15 17 16 16 17 17 17 16 15 15 14 13 12 9 7 5 4 4 4 5 6 5 5 5 11 12 8 12 13 11 13 13 11 11 11 11 9 6 4 4 3 3 4 5 6 8
29 27 26 25 24 22 21 21 21 21 21 21 22 22 21 20 20 20 20 20 18 19 20 20 20 20 19 19 17 16 15 15 15 15 15 15 13 13 14 16 18 18 20 21 21 20 19 17 15 14 12 10 8 7 6 4 4 4 5 5 5 5 7 12 12 9 12 13 12 14 12 11 12 10 10 9 7 5 4 3 3 3 3 5 6
30 28 26 26 24 22 21 21 21 21 21 20 21 22 21 21 21 21 22 22 21 21 22 21 21 21 20 19 18 17 16 15 14 14 14 14 13 13 14 16 18 19 20 22 23 23 21 18 16 13 12 10 9 8 6 4 4 3 4 5 5 6 8 11 10 9 11 11 11 13 12 13 12 9 9 8 7 6 5 3 2 2 2 3 5
31 28 27 27 25 23 22 21 22 21 20 20 21 22 23 22 22 22 23 23 23 22 22 21 21 21 21 21 20 19 18 16 16 16 16 15 14 13 13 14 16 18 20 22 23 23 21 19 16 13 12 11 10 8 6 5 5 4 5 6 7 8 9 9 9 10 11 11 11 11 12 14 12 8 7 7 7 7 6 3 2 1 1 2 4
30 28 28 28 27 25 24 23 23 22 20 20 21 23 24 23 22 23 23 23 23 22 21 21 21 21 22 23 22 20 19 17 17 17 16 16 16 14 13 14 16 17 19 20 21 21 20 18 15 13 12 12 11 9 7 6 6 6 6 7 8 8 9 8 7 7 9 12 11 11 12 13 11 7 6 6 6 7 6 4 3 2 1 0 2
29 26 27 29 28 25 24 25 25 24 21 20 21 22 24 25 23 23 24 24 23 22 21 21 21 22 23 23 23 22 21 19 18 17 17 17 17 15 14 15 16 16 17 18 18 18 17 16 14 12 12 12 11 10 8 7 7 7 7 8 9 9 9 8 7 6 7 10 10 10 11 11 9 6 6 7 6 6 6 5 4 3 2 1 1
28 25 27 29 28 26 25 27 28 26 23 22 22 22 24 25 25 25 25 24 24 23 22 22 22 23 23 23 23 22 22 21 19 18 18 18 18 16 15 14 15 15 16 16 16 16 14 12 11 11 12 13 12 11 9 8 7 8 8 9 9 9 10 9 8 7 7 8 9 9 9 9 8 6 6 7 7 6 6 5 5 4 3 1 1
28 26 27 28 28 27 27 28 29 28 25 24 24 24 24 26 26 26 25 25 25 25 24 24 24 23 23 23 23 22 22 23 22 20 19 18 18 17 15 13 13 14 15 15 15 15 14 11 10 11 13 13 13 13 10 9 8 9 9 9 9 9 10 10 9 9 9 8 9 9 7 6 6 6 6 6 6 6 6 5 5 5 4 3 1
Wind_Direction
159 155 153 149 152 159 163 165 166 163 161 159 156 157 160 159 155 150 146 144 142 141 139 135 132 130 129 127 125 123 124 123 121 119 117 115 111 109 106 103 100 98 98 96 94 93 93 93 91 89 85 80 75 71 75 79 78 77 76 78 83 88 88 85 83 82 83 82 85 90 96 100 107 114 117 117 114 113 112 109 107 113 124 121 112
157 155 154 150 155 161 162 165 166 164 163 161 159 160 162 162 159 154 152 150 148 146 143 141 139 137 136 132 127 125 125 126 124 122 119 116 112 110 107 103 100 99 98 96 94 93 92 90 87 85 82 80 80 77 74 77 78 75 74 75 79 88 92 91 88 85 87 87 88 94 98 101 105 111 116 118 119 117 112 106 103 111 125 121 107
157 156 155 153 158 162 162 164 164 164 163 161 160 160 161 163 162 159 157 155 153 150 148 146 145 142 140 134 129 127 126 126 124 123 120 117 115 112 110 106 103 102 100 98 97 95 92 88 85 84 83 84 85 76 63 61 63 64 65 73 79 87 93 96 94 91 92 89 88 94 100 103 107 111 116 119 122 120 114 110 107 112 120 112 97
160 158 157 155 161 163 162 164 163 164 163 160 159 158 158 162 163 162 160 158 157 154 153 150 148 146 142 136 130 129 128 127 126 124 122 120 117 115 113 111 107 104 102 100 98 94 92 88 85 85 89 90 78 65 62 53 48 57 58 68 77 86 94 99 99 94 93 92 93 95 99 106 111 112 116 121 121 118 116 112 107 114 119 108 100
161 160 159 157 163 165 163 166 165 165 164 163 161 159 158 161 162 163 161 159 158 157 156 152 150 149 143 137 132 131 130 128 128 126 125 123 120 119 117 115 109 106 103 101 97 96 94 91 90 89 91 84 73 69 71 56 43 67 70 77 72 83 95 100 102 97 98 99 103 104 103 108 112 114 119 123 124 122 120 116 115 123 125 116 111
163 162 162 159 163 166 165 167 167 168 167 166 164 162 161 161 161 161 160 161 160 158 156 154 152 151 145 138 133 131 130 129 129 128 128 126 125 122 120 116 111 108 105 100 96 97 99 94 90 89 84 72 78 78 77 78 101 127 122 110 91 84 92 96 101 102 113 118 116 117 119 116 115 120 128 130 132 129 125 125 128 136 134 125 119
167 165 165 164 164 167 168 168 168 168 169 169 166 164 163 162 163 161 160 162 161 159 156 155 154 153 148 140 135 132 131 130 131 131 132 133 131 127 122 118 112 107 102 97 93 96 98 91 85 88 80 66 81 71 32 82 123 160 143 127 143 128 104 103 103 104 118 127 131 130 130 131 128 130 134 137 140 134 131 130 130 141 137 127 126
172 169 168 168 167 166 169 169 167 168 170 170 168 166 164 164 164 162 162 163 163 160 157 157 156 154 149 142 137 131 130 129 129 131 133 134 133 132 128 124 118 109 101 95 92 93 91 89 88 92 86 62 76 70 359 333 193 185 181 183 199 184 152 130 122 123 113 112 134 145 142 144 144 141 139 140 143 141 142 138 133 141 133 128 131
175 172 170 170 168 166 171 171 166 167 169 169 169 167 166 165 164 163 163 165 166 161 157 159 158 154 150 144 140 132 130 129 128 129 130 133 135 135 138 135 123 116 107 94 91 93 93 89 88 94 98 49 48 86 308 284 244 212 230 234 221 216 222 200 161 155 130 77 125 146 148 152 153 147 142 140 146 152 152 145 139 140 135 134 138
176 174 173 173 169 167 172 173 169 168 169 169 169 168 168 166 164 164 165 167 169 164 158 159 159 154 150 147 142 137 138 137 135 136 138 140 149 151 159 153 130 129 120 96 95 88 81 76 81 89 100 61 28 282 266 272 254 230 232 246 247 244 239 219 199 193 219 297 151 153 151 153 159 158 146 145 152 156 158 148 142 143 141 144 144
177 176 174 174 170 170 173 175 173 171 171 170 168 169 168 166 165 164 165 167 167 166 162 160 161 156 151 154 150 149 155 159 159 163 172 163 168 182 188 177 150 150 141 92 64 29 23 41 68 76 81 78 52 188 208 248 252 231 225 245 256 255 251 230 221 215 210 224 178 168 163 149 155 165 158 153 153 152 160 152 144 147 148 149 148
177 177 175 173 173 173 174 177 177 174 174 172 170 170 168 165 166 166 166 166 165 167 166 162 162 158 154 166 170 179 193 192 202 211 203 183 178 202 213 199 172 155 127 53 19 17 13 15 19 17 20 48 83 159 178 230 251 239 233 246 257 258 255 245 242 236 217 234 193 173 177 162 142 162 166 161 157 154 158 156 150 152 154 154 151
178 176 174 173 174 175 175 177 179 177 175 175 173 170 167 164 166 168 166 167 167 168 169 167 167 163 157 179 212 217 231 221 220 229 216 193 189 211 219 207 183 148 85 3 4 360 354 357 354 345 326 298 334 273 228 234 233 244 250 251 259 257 258 248 248 244 245 262 205 176 179 178 144 145 162 164 162 161 157 158 157 155 159 159 157
179 176 174 173 174 176 177 177 181 181 177 177 177 173 169 167 168 170 169 169 171 171 171 172 176 178 165 185 239 247 243 228 205 220 215 193 195 215 214 201 202 202 286 319 332 326 327 335 335 326 320 312 267 276 276 294 247 264 260 253 263 254 264 253 250 243 239 249 204 194 187 183 162 141 148 155 156 157 157 158 159 157 158 158 161
180 178 175 174 175 176 178 179 181 183 180 179 179 177 173 172 173 173 173 173 175 177 175 175 179 195 196 197 233 263 260 235 209 211 209 196 202 219 218 211 228 255 277 295 312 315 326 324 323 323 325 313 274 280 290 298 257 271 266 264 280 257 263 255 255 254 253 253 207 217 213 189 175 161 153 150 147 149 156 159 158 161 156 154 163
181 179 176 175 177 178 179 181 181 183 184 185 184 181 178 177 177 178 179 179 182 183 181 183 183 199 221 222 230 262 270 247 228 218 217 214 216 226 224 230 246 273 284 296 312 323 332 315 320 319 298 285 281 300 295 284 265 278 282 289 303 284 274 253 252 254 253 254 225 232 224 197 187 183 174 163 156 151 158 164 160 161 159 155 163
181 181 179 177 179 181 180 180 182 184 187 190 191 189 185 181 182 185 186 187 190 191 188 191 196 205 227 236 239 253 261 251 244 235 234 234 236 241 232 245 256 274 290 300 317 321 322 310 323 295 241 251 256 299 285 278 272 275 278 286 300 291 278 248 245 248 246 242 233 238 223 205 198 195 190 180 173 164 166 173 167 162 163 161 165
182 184 183 180 181 184 183 181 184 185 187 191 195 197 195 191 190 193 193 194 197 198 197 198 207 215 224 240 243 242 244 244 248 246 245 244 244 249 246 254 259 272 287 297 311 297 311 321 302 243 222 240 292 327 302 294 285 279 277 280 284 274 265 248 230 233 243 235 231 232 219 215 207 199 199 194 184 175 178 180 177 170 164 168 172
184 185 185 185 184 186 187 184 186 186 188 191 193 196 200 201 200 200 200 200 201 203 205 209 216 220 224 235 238 233 235 240 246 247 246 248 247 249 251 254 260 271 275 268 272 264 305 305 249 231 292 12 13 348 319 309 300 291 282 284 286 275 273 271 253 237 240 232 225 224 219 220 213 205 202 202 194 186 191 186 184 182 168 173 181
186 186 186 188 187 189 191 188 188 188 191 193 194 194 197 201 203 205 204 202 205 207 207 211 218 224 224 226 231 231 235 244 248 249 246 247 248 248 252 255 260 266 260 234 239 238 204 229 237 325 33 19 3 344 322 310 303 293 279 275 282 280 285 277 266 260 249 236 223 216 219 221 215 212 207 203 200 195 200 193 187 190 180 182 189
189 189 188 190 190 191 193 193 192 190 193 195 196 197 198 199 201 205 205 202 205 207 207 210 213 219 224 223 229 232 240 252 252 252 248 247 247 248 251 252 257 258 253 236 224 204 196 208 185 51 37 8 343 326 313 305 302 296 294 303 310 293 286 269 264 269 259 249 236 219 220 227 224 219 211 205 204 202 206 200 192 193 188 189 195
190 191 192 193 193 194 195 197 197 195 197 197 196 199 201 200 200 201 203 202 201 200 202 210 212 215 225 227 231 236 245 252 251 251 250 249 248 247 246 245 255 253 239 233 212 184 195 187 89 60 33 339 313 303 299 297 298 298 304 314 322 329 321 306 305 306 287 262 251 235 222 226 231 229 218 209 208 207 209 208 198 197 196 189 192
190 192 193 195 196 196 197 199 199 198 199 200 200 202 203 203 203 200 199 201 200 196 197 209 216 217 224 228 234 238 242 245 248 251 248 248 246 242 234 234 248 244 230 222 199 180 190 122 81 56 300 296 290 289 290 291 296 301 307 316 324 325 325 321 307 307 306 282 258 244 231 226 229 233 225 216 213 210 211 214 204 200 208 197 188
191 192 194 196 199 198 199 201 200 200 202 204 205 208 207 205 205 202 201 202 201 200 200 207 215 217 220 226 233 236 239 242 247 247 241 239 236 229 223 225 231 229 224 208 179 172 166 101 84 24 285 284 284 285 286 288 296 304 311 323 335 326 315 311 301 300 301 291 263 244 242 235 229 230 224 220 218 212 210 215 211 202 211 210 195
192 193 195 196 200 201 202 203 203 203 206 209 210 212 212 210 208 207 207 207 206 207 207 210 215 218 221 226 232 236 240 242 243 241 234 228 224 221 220 220 219 216 210 187 162 149 116 99 101 281 277 284 290 291 290 291 294 305 317 328 336 321 307 307 302 299 294 285 267 248 248 242 234 229 220 218 220 216 209 211 213 206 210 218 208
193 195 196 195 198 202 205 206 205 206 209 212 212 213 214 215 213 211 211 211 211 214 215 216 218 221 224 229 233 237 239 236 236 236 229 220 216 215 214 213 210 201 187 166 152 140 96 89 234 288 286 299 310 305 302 301 298 305 315 324 332 321 308 308 305 299 290 280 266 251 248 243 235 232 223 218 219 218 212 209 210 210 213 218 214
194 196 196 196 197 200 204 205 204 206 208 209 209 209 210 212 212 213 214 214 215 217 218 220 223 225 227 231 234 236 235 229 230 231 223 213 210 208 203 201 196 183 165 147 144 135 87 43 1 328 308 318 323 319 317 316 314 317 314 314 329 329 318 313 308 299 287 277 268 255 246 243 237 233 227 222 222 220 214 211 209 211 214 216 214
195 197 197 198 198 199 201 202 203 206 207 207 209 209 209 211 213 214 215 216 217 219 219 220 223 226 227 229 231 233 230 224 225 223 214 205 202 199 194 188 179 161 145 136 131 114 93 56 33 15 340 341 330 324 328 332 332 331 324 320 332 335 323 314 310 301 284 270 265 258 249 245 240 233 230 227 227 224 217 214 211 211 213 213 215
200 199 198 200 201 201 201 201 202 205 207 207 209 209 209 213 215 216 217 217 218 218 220 221 222 225 226 226 228 229 223 218 217 213 203 196 194 191 183 175 165 148 139 134 126 120 111 81 47 29 16 8 348 333 333 338 338 337 335 334 338 340 331 323 319 310 290 268 257 253 247 243 239 234 232 228 227 227 223 219 215 212 213 214 216
204 203 202 203 203 204 203 201 202 204 205 205 209 209 208 212 215 217 217 217 217 216 218 220 223 226 227 226 225 220 214 210 207 200 195 192 189 182 175 170 162 151 144 141 137 141 135 95 40 19 20 17 2 348 343 342 342 341 339 336 337 341 341 334 323 315 299 276 262 253 246 244 242 239 235 227 224 225 223 223 221 217 214 214 216
206 205 205 205 205 205 204 203 203 204 204 204 209 212 211 212 214 216 215 215 215 216 219 220 223 226 224 221 217 211 205 200 195 192 191 189 183 175 171 167 162 158 159 161 165 179 187 167 357 358 4 5 359 353 350 351 352 350 343 337 336 339 343 338 325 316 306 286 272 262 252 250 250 248 242 232 226 224 221 223 224 222 219 215 217
208 208 207 207 207 206 206 205 206 205 205 206 211 214 215 215 215 215 215 217 216 218 220 220 220 219 216 212 208 203 197 192 190 189 187 184 178 172 170 167 165 167 173 190 203 217 227 240 306 332 349 352 355 352 348 352 357 357 350 341 339 343 344 340 331 323 318 306 288 270 254 250 253 253 247 238 233 228 225 224 223 223 223 220 220
212 212 210 209 209 208 207 207 207 207 207 209 213 215 215 214 215 216 218 219 218 219 219 217 215 211 208 205 199 195 192 190 189 187 184 182 178 174 172 170 174 186 197 214 220 226 235 239 289 315 336 343 349 350 346 351 356 357 355 348 347 351 350 346 343 344 347 333 313 287 256 252 262 263 246 236 238 234 228 227 225 224 226 223 222
218 215 213 212 211 209 208 208 209 209 209 211 214 213 212 212 214 216 219 219 218 219 218 214 211 207 204 200 195 193 191 191 189 185 184 184 182 177 174 175 186 206 216 225 225 227 240 256 293 320 333 334 342 345 341 348 352 355 358 352 350 355 354 357 357 358 2 354 339 320 285 276 288 288 259 237 239 238 230 226 227 228 229 227 225
222 219 218 216 215 212 209 211 211 211 210 211 213 211 209 210 213 216 218 217 217 218 214 209 208 206 204 200 197 195 192 192 190 187 187 187 185 181 178 184 197 215 224 229 230 235 259 280 294 316 328 330 338 341 338 343 346 352 359 353 348 350 353 1 359 355 360 3 3 351 323 305 298 294 276 250 240 239 233 227 226 226 226 228 229
221 220 221 220 219 215 212 213 214 213 210 209 211 209 209 211 213 215 215 215 215 214 209 206 207 207 206 203 199 196 194 194 192 191 191 191 189 186 187 195 206 219 227 232 236 247 270 286 296 307 317 324 335 340 336 340 345 349 356 355 347 346 350 358 358 359 1 6 12 9 354 330 308 293 271 251 241 241 237 231 230 229 225 225 229
221 221 222 222 220 215 211 213 215 214 210 207 207 207 208 210 212 212 211 213 213 210 207 206 207 207 207 205 201 198 196 195 195 195 196 197 196 193 197 205 214 220 227 237 242 251 267 284 297 303 311 321 333 337 334 338 348 351 353 357 354 350 352 357 360 2 4 8 16 19 17 8 339 303 265 243 237 241 243 238 235 236 233 229 231
226 225 225 226 223 216 210 211 213 213 210 206 204 205 206 207 209 209 210 212 212 210 208 209 208 207 207 205 202 200 198 197 197 198 199 200 200 199 203 212 217 219 234 251 249 255 271 287 297 299 305 319 330 333 332 337 350 355 354 359 1 359 2 4 6 7 7 12 19 22 23 20 9 342 284 249 235 236 242 244 239 236 235 231 232
230 228 229 229 228 222 213 210 211 210 209 205 202 203 203 203 205 207 209 210 210 210 210 211 209 207 206 204 203 202 201 201 201 201 201 201 202 203 208 219 221 225 251 260 258 267 279 292 300 300 300 312 323 324 325 332 349 359 358 1 4 6 11 12 11 9 11 14 17 21 22 18 12 8 2 303 244 234 239 241 239 235 229 225 227
232 230 229 229 230 227 218 213 210 208 207 204 201 201 201 201 203 206 209 209 208 209 210 211 211 209 207 204 204 204 203 204 204 205 205 205 208 210 216 227 231 244 262 257 263 274 281 291 300 303 302 308 319 321 320 324 343 356 357 2 8 13 24 23 14 7 11 15 12 15 18 18 14 13 23 34 30 288 245 243 241 237 232 228 226
231 229 227 227 229 230 223 216 211 206 205 205 201 201 202 202 204 206 209 208 208 210 210 210 211 210 209 208 207 205 204 206 207 210 211 212 217 219 224 233 241 256 260 255 261 268 277 287 297 303 303 304 311 316 316 318 336 350 356 8 15 29 44 28 17 10 15 14 8 9 12 15 16 14 10 12 18 13 331 252 243 237 236 235 232
229 227 226 225 227 231 227 220 213 206 205 206 204 204 205 207 209 210 210 209 209 211 211 212 213 212 211 211 209 208 209 210 211 214 216 218 223 225 228 237 242 246 250 255 257 262 273 283 292 298 299 299 298 297 302 318 338 349 356 11 23 42 44 21 19 25 22 13 9 11 10 13 17 17 13 360 354 352 335 273 236 231 233 235 235
231 230 226 223 225 231 230 221 215 210 208 208 208 208 209 211 213 214 213 211 211 212 214 215 215 213 212 211 211 211 213 216 217 218 219 220 226 232 234 240 243 243 246 253 256 260 267 277 289 295 294 292 288 278 280 314 339 348 354 359 11 27 18 9 17 28 19 15 15 12 11 13 14 16 18 11 358 348 329 295 241 227 231 232 233
231 231 226 223 225 231 233 223 216 214 211 210 211 212 212 212 212 214 215 215 215 214 213 215 213 211 209 208 209 210 211 215 218 221 223 225 232 238 240 241 244 245 248 253 256 260 266 275 287 292 288 281 275 270 276 310 330 333 347 350 354 6 358 357 6 17 13 12 14 11 9 10 9 11 16 15 5 353 339 308 254 231 232 228 223
230 230 227 225 227 232 234 227 218 213 211 210 212 213 212 211 210 210 211 213 215 215 214 214 211 207 204 205 205 203 204 207 212 218 222 226 230 236 240 240 241 243 248 254 258 261 266 273 283 287 278 265 260 271 285 310 318 308 333 346 345 348 345 347 354 3 4 4 7 10 11 7 3 4 10 13 9 357 346 328 272 243 238 229 218
232 231 229 227 228 231 232 228 220 213 211 212 212 213 213 212 211 210 211 212 213 214 216 215 212 209 206 204 203 201 204 206 209 214 218 222 229 234 240 242 241 242 246 253 258 261 266 271 278 276 262 251 255 270 283 302 317 313 324 334 333 329 330 339 345 345 350 358 5 8 10 6 359 357 4 8 12 8 356 349 316 263 249 229 222
232 231 229 227 228 228 227 226 221 214 213 213 214 215 216 215 215 216 217 218 217 217 218 217 216 215 213 210 208 207 209 211 212 217 220 225 231 236 242 245 245 244 245 250 256 260 265 268 271 266 253 248 254 264 273 289 310 318 317 319 322 321 320 326 333 336 341 347 358 7 7 4 360 354 2 5 9 16 12 10 16 343 255 211 214
227 227 228 230 230 226 224 224 221 216 214 216 218 219 220 219 218 220 222 223 223 222 221 220 219 219 220 220 217 216 215 214 215 220 224 227 232 237 245 249 248 245 245 249 254 259 263 264 263 256 249 249 253 258 265 283 306 312 309 310 314 317 314 311 314 327 335 335 347 5 5 7 9 355 360 7 3 13 18 19 24 14 359 197 203
231 232 233 234 234 228 224 224 222 219 215 218 222 223 224 224 222 223 224 225 225 225 223 224 223 223 225 225 224 222 220 218 219 224 229 231 233 237 246 252 250 246 245 247 251 255 257 259 256 249 246 248 251 256 264 280 299 303 305 309 310 310 307 304 304 313 326 326 336 356 2 13 20 2 359 10 2 4 14 21 29 24 4 326 251
236 238 236 235 234 229 225 224 223 220 217 219 224 227 227 226 226 226 227 226 226 225 223 223 225 227 228 229 228 227 224 222 222 229 236 235 233 236 244 250 248 244 244 246 249 249 248 251 253 249 246 247 251 258 265 275 287 294 302 307 306 304 301 296 292 295 308 315 323 341 354 11 24 14 358 2 359 355 0 10 20 24 16 351 301
233 233 234 234 233 228 224 223 222 220 217 219 223 227 228 228 228 228 229 229 227 225 223 222 224 228 231 233 234 234 233 230 229 233 237 235 232 236 242 247 245 241 242 245 245 242 240 246 256 258 252 249 253 258 262 267 275 286 296 299 299 300 299 292 283 281 290 299 309 324 337 353 19 21 356 352 357 354 351 356 5 14 17 9 341